Weather History for Holloman AFB, NM

Change the Weather History Date:

Wednesday, February 13, 2013

  Actual Average Record
Temperature  
Mean Temperature 36 °F -  
Max Temperature 51 °F 58 °F 73 °F (2003)
Min Temperature 20 °F 30 °F 14 °F (1999)
Degree Days  
Heating Degree Days 30    
Moisture  
Dew Point 7 °F    
Average Humidity 35    
Maximum Humidity 55    
Minimum Humidity 16    
Precipitation  
Precipitation 0.00 in - - ()
Sea Level Pressure  
Sea Level Pressure 30.10 in    
Wind  
Wind Speed 7 mph (NNW)    
Max Wind Speed 12 mph    
Max Gust Speed -    
Visibility 10 miles    
Events      
Averages and records for this station are not official NWS values.
T = Trace of Precipitation, MM = Missing Value Source: NWS Daily Summary

Daily Weather History Graph

Daily Weather History Graph

Search for Another Location

Airport:

Trip Planner

Search our weather history database for the weather conditions in past years. The results will help you decide how hot, cold, wet, or windy it might be!

Date:

Astronomy

Feb. 13, 2013 Rise Set
Actual Time 6:49 AM MST 5:48 PM MST
Civil Twilight 6:24 AM MST 6:13 PM MST
Nautical Twilight 5:55 AM MST 6:42 PM MST
Astronomical Twilight 5:26 AM MST 7:11 PM MST
Moon 8:35 AM MST (2/13) 9:36 PM MST (2/13)
Length of Visible Light 11h 49m
Length of Day
10h 59m
Waxing Crescent, 14% of the Moon is Illuminated
Feb 13
Waxing Crescent
Feb 17
First Quarter
Feb 25
Full
Mar 4
Last Quarter
Mar 11
New

Hourly Weather History & Observations

Time (MST) Temp. Windchill Dew Point Humidity Pressure Visibility Wind Dir Wind Speed Gust Speed Precip Events Conditions
12:58 AM 23.7 °F 13.3 °F 6.4 °F 48% 30.14 in 10.0 mi NNE 10.4 mph - N/A   Clear
1:58 AM 20.7 °F 9.5 °F 4.5 °F 50% 30.14 in 10.0 mi NNW 10.4 mph - N/A   Clear
2:58 AM 25.2 °F 16.5 °F 7.2 °F 46% 30.12 in 10.0 mi North 8.1 mph - N/A   Clear
3:58 AM 21.6 °F - 6.1 °F 51% 30.10 in 10.0 mi Calm Calm - N/A   Clear
4:58 AM 21.4 °F 9.7 °F 7.5 °F 55% 30.11 in 10.0 mi North 11.5 mph - N/A   Clear
5:58 AM 23.2 °F 18.7 °F 8.1 °F 52% 30.12 in 10.0 mi SSE 3.5 mph - N/A   Clear
6:58 AM 20.3 °F - 3.7 °F 49% 30.14 in 10.0 mi Calm Calm - N/A   Clear
7:58 AM 23.4 °F - 5.2 °F 46% 30.17 in 10.0 mi Calm Calm - N/A   Clear
8:55 AM 37.4 °F 30.3 °F 12.2 °F 36% 30.16 in 10.0 mi NNW 10.4 mph - N/A   Clear
9:55 AM 41.0 °F 34.7 °F 10.4 °F 29% 30.16 in 10.0 mi North 10.4 mph - N/A   Clear
10:55 AM 46.4 °F 41.1 °F 10.4 °F 23% 30.15 in 10.0 mi NW 11.5 mph - N/A   Clear
11:55 AM 46.4 °F 41.5 °F 10.4 °F 23% 30.13 in 10.0 mi WNW 10.4 mph - N/A   Clear
12:59 PM 50.0 °F - 8.6 °F 19% 30.05 in 10.0 mi NW 9.2 mph - N/A   Clear
1:58 PM 50.2 °F - 7.0 °F 17% 30.04 in 10.0 mi NW 5.8 mph - N/A   Clear
2:55 PM 51.8 °F - 6.8 °F 16% 30.04 in 10.0 mi NNW 4.6 mph - N/A   Clear
5:55 PM 50.0 °F - 8.6 °F 19% 30.04 in 10.0 mi NNW 2.3 mph - N/A   Clear
6:58 PM 42.6 °F 39.9 °F 6.4 °F 23% 30.06 in 10.0 mi North 4.6 mph - N/A   Clear
7:58 PM 37.6 °F 31.6 °F 3.9 °F 25% 30.08 in 10.0 mi NE 8.1 mph - N/A   Clear
8:58 PM 31.5 °F 22.9 °F 2.7 °F 29% 30.06 in 10.0 mi NE 10.4 mph - N/A   Clear
9:58 PM 32.4 °F 29.1 °F 6.3 °F 33% 30.07 in 10.0 mi WNW 3.5 mph - N/A   Clear
10:58 PM 28.4 °F 20.4 °F 5.9 °F 39% 30.07 in 10.0 mi NNW 8.1 mph - N/A   Clear
11:58 PM 27.7 °F 21.3 °F 5.9 °F 40% 30.05 in 10.0 mi North 5.8 mph - N/A   Clear